Ponca City, OK

1:20 AM CST on November 17, 2019 (GMT -0600)
Ponca City Municipal

Weather History for KPNC - July, 2019

Change the Weather History Date:

Wednesday, July 31, 2019

  Actual Average Record
Temperature  
Mean Temperature 86 °F -  
Max Temperature 99 °F 95 °F 111 °F (2012)
Min Temperature 73 °F 69 °F 54 °F (1971)
Cooling Degree Days 20    
Growing Degree Days 36 (Base 50)    
Moisture  
Dew Point 67 °F    
Average Humidity 54    
Maximum Humidity 76    
Minimum Humidity 35    
Precipitation  
Precipitation 0.00 in - - ()
Sea Level Pressure  
Sea Level Pressure 29.96 in    
Wind  
Wind Speed 11 mph (SSE)    
Max Wind Speed 20 mph    
Max Gust Speed 29 mph    
Visibility 10 miles    
Events      
Averages and records for this station are not official NWS values.
T = Trace of Precipitation, MM = Missing Value Source: NWS Daily Summary

Daily Weather History Graph

Daily Weather History Graph

Search for Another Location

Airport or City:

Astronomy

Jul. 31, 2019 Rise Set
Actual Time 6:33 AM CDT 8:35 PM CDT
Civil Twilight 6:04 AM CDT 9:04 PM CDT
Nautical Twilight 5:29 AM CDT 9:39 PM CDT
Astronomical Twilight 4:51 AM CDT 10:16 PM CDT
Moon 5:49 AM CDT (7/31) 8:35 PM CDT (7/31)
Length of Visible Light 14h 59m
Length of Day
14h 02m
Waning Crescent, 0% of the Moon is Illuminated
Jul 31
Waning Crescent
Jul 31
New
Aug 7
First Quarter
Aug 15
Full
Aug 23
Last Quarter

Hourly Weather History & Observations

Time (CDT) Temp. Heat Index Dew Point Humidity Pressure Visibility Wind Dir Wind Speed Gust Speed Precip Events Conditions
12:53 AM 77.0 °F - 64.0 °F 64% 30.01 in 10.0 mi SE 8.1 mph - N/A   Clear
1:53 AM 75.9 °F - 64.0 °F 67% 29.99 in 10.0 mi SE 10.4 mph - N/A   Clear
2:53 AM 75.9 °F - 64.0 °F 67% 29.98 in 10.0 mi SE 12.7 mph - N/A   Clear
3:53 AM 75.0 °F - 64.0 °F 69% 29.96 in 10.0 mi SSE 8.1 mph - N/A   Clear
4:53 AM 73.0 °F - 64.0 °F 73% 29.96 in 10.0 mi SE 6.9 mph - N/A   Clear
5:53 AM 73.0 °F - 64.9 °F 76% 29.98 in 10.0 mi SE 8.1 mph - N/A   Clear
6:53 AM 73.9 °F - 64.9 °F 73% 29.99 in 10.0 mi ESE 8.1 mph - N/A   Clear
7:53 AM 75.9 °F - 66.0 °F 71% 30.01 in 10.0 mi ESE 10.4 mph - N/A   Clear
8:53 AM 81.0 °F 83.3 °F 66.9 °F 62% 30.02 in 10.0 mi SSE 11.5 mph - N/A   Clear
9:53 AM 84.9 °F 88.8 °F 69.1 °F 59% 30.03 in 10.0 mi SSE 6.9 mph - N/A   Clear
10:53 AM 88.0 °F 92.9 °F 70.0 °F 55% 30.03 in 10.0 mi SSE 8.1 mph 17.3 mph N/A   Clear
11:53 AM 91.0 °F 97.6 °F 71.1 °F 52% 30.02 in 10.0 mi SSE 10.4 mph 17.3 mph N/A   Clear
12:53 PM 93.9 °F 100.8 °F 71.1 °F 47% 30.00 in 10.0 mi SSE 16.1 mph - N/A   Clear
1:53 PM 97.0 °F 102.8 °F 69.1 °F 40% 29.97 in 10.0 mi SE 17.3 mph 23.0 mph N/A   Clear
2:53 PM 97.0 °F 102.2 °F 68.0 °F 39% 29.96 in 10.0 mi SSE 19.6 mph - N/A   Clear
3:53 PM 98.1 °F 104.4 °F 69.1 °F 39% 29.94 in 10.0 mi SSE 19.6 mph 28.8 mph N/A   Clear
4:53 PM 98.1 °F 101.8 °F 66.0 °F 35% 29.92 in 10.0 mi South 11.5 mph 23.0 mph N/A   Clear
5:53 PM 97.0 °F 101.0 °F 66.9 °F 37% 29.91 in 10.0 mi South 11.5 mph 25.3 mph N/A   Clear
6:53 PM 96.1 °F 99.9 °F 66.9 °F 38% 29.91 in 10.0 mi South 8.1 mph 20.7 mph N/A   Clear
7:53 PM 93.9 °F 97.0 °F 66.0 °F 40% 29.90 in 10.0 mi South 12.7 mph 20.7 mph N/A   Clear
8:53 PM 91.0 °F 94.3 °F 66.9 °F 45% 29.89 in 10.0 mi North - - N/A   Clear
9:53 PM 88.0 °F 90.7 °F 66.9 °F 49% 29.91 in 10.0 mi SSE 16.1 mph - N/A   Clear
10:53 PM 88.0 °F 90.7 °F 66.9 °F 49% 29.92 in 10.0 mi SSE 12.7 mph 18.4 mph N/A   Clear
11:53 PM 86.0 °F 89.4 °F 68.0 °F 55% 29.91 in 10.0 mi SSE 15.0 mph - N/A   Clear